Regional Weather Roundup
Issued by NWS

Home | Current Version | Previous Version | Graphics & Text | Print | Product List | Glossary On
Versions: 1 2 3 4 5 6 7 8 9 10 11 12 13 14 15 16 17 18 19 20 21 22 23 24 25 26 27 28 29 30 31 32 33 34 35 36 37 38 39 40 41 42 43 44 45 46 47 48 49 50
000
ASUS43 KMPX 261710
RWRMN
WEATHER ROUNDUP FOR MINNESOTA
NATIONAL WEATHER SERVICE TWIN CITIES/CHANHASSEN MN
1200 PM CDT SAT MAY 26 2018


NOTE: "FAIR" INDICATES FEW OR NO CLOUDS BELOW 12,000 FEET WITH NO
SIGNIFICANT WEATHER AND/OR OBSTRUCTIONS TO VISIBILITY. N/A MEANS
CURRENT SKY AND/OR WEATHER CONDITIONS ARE NOT AVAILABLE.

MNZ060>063-068>070-261800-
   Twin Cities Metro

CITY           SKY/WX    TMP DP  RH WIND       PRES   REMARKS
TWIN CITIES    FAIR      88  64  44 W8        29.72S
ST PAUL        FAIR      86  64  47 SW8       29.71S
CRYSTAL        FAIR      87  57  35 W8        29.70F
BLAINE         SUNNY     88  57  35 W5        29.71S
LAKEVILLE      FAIR      88  63  42 SW8       29.72F
EDEN PRAIRIE   FAIR      86  67  52 SW5       29.71F
SOUTH ST PAUL  FAIR      88  59  38 W8        29.71S
LAKE ELMO      FAIR      86  66  51 W6        29.72F
$$
MNZ001>005-007-008-013>017-022>024-027-028-261800-
   Northwest Minnesota

CITY           SKY/WX    TMP DP  RH WIND       PRES   REMARKS
BEMIDJI        FAIR      82  55  39 NW17G23   29.69S
HALLOCK        FAIR      81  57  44 NW17G24   29.66R
ROSEAU         FAIR      77  63  61 W10G18    29.66S
WARROAD        FAIR      75  64  69 W8        29.66S
THIEF RVR FALL FAIR      79  58  48 W13G21    29.69F
CROOKSTON      FAIR      82  55  39 NW15G21   29.68F
FOSSTON        FAIR      81  52  36 W14G24    29.70F
DETROIT LAKES  FAIR      86  50  28 W15G21    29.74S
MOORHEAD       FAIR      90  48  24 NW15G23   29.70F
PARK RAPIDS    FAIR      86  51  29 W23G31    29.71S
MAHNOMEN       FAIR      83  54  37 NW13G20   29.70S
$$
MNZ006-009>011-018-025>026-261800-
   North Central Minnesota

CITY           SKY/WX    TMP DP  RH WIND       PRES   REMARKS
BAUDETTE         N/A     77  32  19 MISG      29.65S
INTL FALLS     FAIR      78  60  53 W10       29.65S
WASKISH        FAIR      77  61  57 CALM      29.67S
BIG FORK       FAIR      82  55  39 SW8       29.66S
LONGVILLE      FAIR      84  50  30 W14G23    29.69S
GRAND RAPIDS   FAIR      83  55  38 W12G22    29.69F
ORR            FAIR      77  55  47 CALM      29.64S
COOK           FAIR      79  57  47 NW3       29.67S
WALKER         FAIR      84  54  35 W12G18    29.69S
$$
MNZ012-019>021-037-261800-
   Northeast Minnesota

CITY           SKY/WX    TMP DP  RH WIND       PRES   REMARKS
DULUTH         FAIR      88  54  31 W15       29.67F
ELY            FAIR      79  54  41 NW3       29.67S
HIBBING        FAIR      83  55  38 W10G22    29.66F
EVELETH        FAIR      83  56  39 W9        29.67F
DULUTH HARBOR  FAIR      57  54  88 E3        29.66F
TWO HARBORS    FAIR      79  63  57 SE9       29.64S
SILVER BAY     FAIR      75  61  60 SE7       29.65S
GRAND MARAIS     N/A     57  50  77 NE8       29.67F
G MARAIS ARPRT FAIR      73  54  49 CALM      29.71F
$$
MNZ029>031-032-039>041-046>048-054>057-064-261800-
   West Central Minnesota

CITY           SKY/WX    TMP DP  RH WIND       PRES   REMARKS
FERGUS FALLS   FAIR      88  54  31 NW12G18   29.68S
WHEATON        SUNNY     88  48  25 W9        29.74F
MORRIS         SUNNY     91  48  22 NW10      29.72F
ALEXANDRIA     FAIR      90  54  29 W10       29.76S
ELBOW LAKE     FAIR      86  53  32 W13       29.74S
WADENA         FAIR      84  54  34 W8        29.72F
GLENWOOD       FAIR      86  57  37 W10       29.76S
APPLETON       SUNNY     90  48  24 W5        29.73F
BENSON         SUNNY     91  48  22 N7        29.74F
ORTONVILLE     SUNNY     90  50  25 NW6       29.74F
MADISON        SUNNY     91  50  24 NW9       29.74F
WILLMAR        FAIR      90  48  24 NW5       29.76S
$$
MNZ033>034-036-042>043-049>051-058-059-261800-
   Central Minnesota

CITY           SKY/WX    TMP DP  RH WIND       PRES   REMARKS
ST CLOUD       FAIR      91  48  22 VRB6      29.71S
SAUK CENTRE    FAIR      90  50  25 SW8G16    29.74S
PAYNESVILLE    FAIR      87  59  38 W8        29.74S
AITKIN         FAIR      88  52  29 W8        29.68S
PINE RIVER     FAIR      84  52  32 W8G17     29.73S
BRAINERD       FAIR      88  51  28 W13       29.71S
STAPLES        FAIR      88  46  23 W16       29.72S
LONG PRAIRIE   FAIR      88  46  23 W12       29.74S
LITTLE FALLS   FAIR      88  50  27 W10       29.72S
LITCHFIELD     FAIR      88  59  37 CALM      29.73S
BUFFALO        FAIR      85  58  39 W3        29.74S
MAPLE LAKE     FAIR      89  58  35 CALM      29.73S
HUTCHINSON     FAIR      86  67  52 W8        29.75S
$$
MNZ037-044-045-052-053-261800-
   East Central Minnesota

CITY           SKY/WX    TMP DP  RH WIND       PRES   REMARKS
PRINCETON      FAIR      93  52  24 W10       29.71S HX  90
MORA           FAIR      86  57  37 SW3       29.71F
CAMBRIDGE      FAIR      91  64  40 SW6       29.71S HX  93
RUSH CITY      FAIR      87  59  38 NW5       29.71S
MOOSE LAKE     FAIR      88  52  29 W7G16     29.67F
HINCKLEY       FAIR      86  63  45 SW6       29.69F
CLOQUET        FAIR      88  45  22 W13       29.68S
MCGREGOR       FAIR      86  46  25 W13G18    29.70S
$$
MNZ071>073-080-081-089-090-097-098-261800-
   Southwest Minnesota

CITY           SKY/WX    TMP DP  RH WIND       PRES   REMARKS
MONTEVIDEO     SUNNY     93  48  21 CALM      29.74S HX  90
CANBY          SUNNY     88  55  32 NW8       29.76F
MARSHALL       SUNNY     86  62  44 NW12      29.76F
REDWOOD FALLS  SUNNY     87  61  41 W7        29.73F
OLIVIA         SUNNY     84  61  45 W8        29.74S
PIPESTONE      SUNNY     88  54  31 NW7G18    29.81S
WINDOM         SUNNY     90  54  29 NW8G21    29.77S
WORTHINGTON    SUNNY     87  54  32 NW14G20   29.81S
JACKSON        SUNNY     86  50  28 NW15      29.80S
TRACY          SUNNY     92  52  25 NW17G25   29.77S
SLAYTON        SUNNY     90  48  24 W16G25    29.80S
$$
MNZ065>067-074>077-082>085-091>093-261800-
   South Central Minnesota

CITY           SKY/WX    TMP DP  RH WIND       PRES   REMARKS
MANKATO        FAIR      88  62  41 VRB7      29.75S
NEW ULM        SUNNY     90  54  29 W5        29.74S
ST JAMES       SUNNY     90  52  27 W13       29.76S
FAIRMONT       SUNNY     89  55  31 W13G18    29.77S
GLENCOE        FAIR      86  65  48 W7        29.73S
FARIBAULT      FAIR      88  64  45 CALM      29.75S
OWATONNA       FAIR      88  61  40 CALM      29.75S
WASECA         FAIR      90  55  31 W6        29.77S
ALBERT LEA     FAIR      84  57  39 W5        29.76F
$$
MNZ078>079-086>088-094>096-261800-
   Southeast Minnesota

CITY           SKY/WX    TMP DP  RH WIND       PRES   REMARKS
ROCHESTER      FAIR      85  67  54 NW5       29.77S
RED WING       FAIR      88  59  37 S3        29.71S
STANTON        FAIR      87  62  43 SW5       29.72F
DODGE CENTER   FAIR      86  63  45 W7        29.77S
WINONA         FAIR      82  68  61 SW5       29.74S
AUSTIN         FAIR      84  64  51 SW3       29.77S
PRESTON        FAIR      83  67  58 W3        29.78F
$$
ABBREVIATIONS USED IN REMARKS
   TC - TEMPERATURES IN CELSIUS
  WCI - WIND CHILL INDEX
   HX - HEAT INDEX
  VSB - VISIBILITY
$$




USA.gov is the U.S. government's official web portal to all federal, state and local government web resources and services.